星链-32099 (STARLINK-32099 )

导读 | 豆包AI

STARLINK-32099是美国太空探索技术公司(SpaceX)于2024年5月8日发射的星链卫星,隶属于星链(Starlink)项目。星链项目旨在通过近地轨道卫星群为全球提供高速互联网接入服务,该卫星的入轨进一步扩充了星链星座的规模,提升星座网络覆盖与服务能力。

基本信息
目录编号:
59697
目录名称:
STARLINK-32099
国际标识:
2024-086R
轨道中心:
EARTH
卫星名称:
星链-32099
卫星全名:
星链-32099 (STARLINK-32099 )
卫星状态:
在轨 (已飞行723 天)
发射日期:
2024-05-08 UTC
国别 :
美国 (US)
星等 :
--
轨道信息
数据来源 国际轨道数据
星历时间: 2026-04-30T09:50:21+0800
1天前
查看轨道信息
半长轴: 6861.212km
偏心率: 0.0000804
轨道倾角: 42.998°
近地点辐角 262.199°
升交点赤经 129.475°
平近点角 97.877°
近地点: 482.523km
远地点: 483.627km
周期: 94.267分钟
每日圈数: 15.275715
详细信息
固有亮度:
5
最大亮度:
1.5
卫星平台:
Starlink v2.0 mini
覆盖范围:
全球
运营商:
太空探索技术公司
运营商所在国:
美国
制造商(研发单位):
太空探索技术公司
制造商所在国:
美国
使用方式:
暂无
卫星简介
星链(Starlink)计划是由太空探索技术公司(SpaceX)提出的一个巨型低轨卫星互联网星座项目,计划在2019年至2024年间在太空搭建由约1.2万颗卫星组成的“星链”网络,其中1584颗将部署在地球上空550千米处的近地轨道,并从2020年开始工作。该卫星仍在工作。
2D轨道图
3D轨道图
轨道高度分析图
轨道倾角分析图
轨道综合分析图
查看轨道综合分析图